TimePDT,TemperatureF,Dew PointF,Humidity,Sea Level PressureIn,VisibilityMPH,Wind Direction,Wind SpeedMPH,Gust SpeedMPH,PrecipitationIn,Events,Conditions,WindDirDegrees,DateUTC
12:15 AM,59.0,55.4,88,29.82,10.0,WSW,5.8,-,N/A,,Clear,250,2013-09-17 07:15:00
12:35 AM,57.2,53.6,88,29.83,10.0,East,4.6,-,N/A,,Clear,90,2013-09-17 07:35:00
12:55 AM,59.0,55.4,88,29.82,10.0,WNW,3.5,-,N/A,,Clear,300,2013-09-17 07:55:00
1:15 AM,59.0,55.4,88,29.82,10.0,ESE,3.5,-,N/A,,Clear,110,2013-09-17 08:15:00
1:35 AM,59.0,55.4,88,29.82,10.0,East,3.5,-,N/A,,Clear,100,2013-09-17 08:35:00
1:55 AM,57.2,55.4,94,29.82,10.0,ESE,4.6,-,N/A,,Clear,110,2013-09-17 08:55:00
2:15 AM,55.4,55.4,100,29.82,10.0,East,3.5,-,N/A,,Clear,80,2013-09-17 09:15:00
2:35 AM,57.2,55.4,94,29.82,10.0,ESE,3.5,-,N/A,,Clear,110,2013-09-17 09:35:00
2:55 AM,57.2,55.4,94,29.82,10.0,East,3.5,-,N/A,,Clear,100,2013-09-17 09:55:00
3:15 AM,57.2,55.4,94,29.82,10.0,East,3.5,-,N/A,,Clear,80,2013-09-17 10:15:00
3:35 AM,57.2,55.4,94,29.81,10.0,East,6.9,-,N/A,,Clear,100,2013-09-17 10:35:00
3:55 AM,57.2,55.4,94,29.81,10.0,South,5.8,-,N/A,,Clear,180,2013-09-17 10:55:00
4:15 AM,57.2,53.6,88,29.81,10.0,Calm,Calm,-,N/A,,Clear,0,2013-09-17 11:15:00
4:35 AM,55.4,53.6,94,29.82,10.0,Calm,Calm,-,N/A,,Clear,0,2013-09-17 11:35:00
4:55 AM,57.2,53.6,88,29.82,10.0,ENE,4.6,-,N/A,,Clear,70,2013-09-17 11:55:00
5:15 AM,53.6,53.6,100,29.83,10.0,NE,5.8,-,N/A,,Clear,40,2013-09-17 12:15:00
5:35 AM,55.4,55.4,100,29.83,10.0,NE,3.5,-,N/A,,Clear,40,2013-09-17 12:35:00
5:55 AM,53.6,53.6,100,29.83,10.0,Calm,Calm,-,N/A,,Clear,0,2013-09-17 12:55:00
6:15 AM,53.6,53.6,100,29.83,10.0,East,3.5,-,N/A,,Clear,90,2013-09-17 13:15:00
6:35 AM,53.6,53.6,100,29.84,10.0,Calm,Calm,-,N/A,,Clear,0,2013-09-17 13:35:00
6:55 AM,51.8,51.8,100,29.84,10.0,Calm,Calm,-,N/A,,Clear,0,2013-09-17 13:55:00
7:15 AM,53.6,53.6,100,29.84,10.0,Calm,Calm,-,N/A,,Clear,0,2013-09-17 14:15:00
7:35 AM,53.6,53.6,100,29.85,10.0,SE,3.5,-,N/A,,Clear,140,2013-09-17 14:35:00
7:55 AM,55.4,55.4,100,29.85,10.0,ESE,4.6,-,N/A,,Clear,120,2013-09-17 14:55:00
8:15 AM,57.2,55.4,94,29.85,10.0,ESE,4.6,-,N/A,,Clear,120,2013-09-17 15:15:00
8:35 AM,59.0,55.4,88,29.84,10.0,SE,5.8,-,N/A,,Clear,130,2013-09-17 15:35:00
8:55 AM,60.8,55.4,82,29.85,10.0,SE,8.1,-,N/A,,Clear,130,2013-09-17 15:55:00
9:15 AM,64.4,53.6,68,29.85,10.0,SW,3.5,-,N/A,,Clear,230,2013-09-17 16:15:00
9:35 AM,68.0,50.0,52,29.86,10.0,NW,8.1,-,N/A,,Clear,310,2013-09-17 16:35:00
9:55 AM,71.6,50.0,46,29.86,10.0,West,5.8,-,N/A,,Clear,280,2013-09-17 16:55:00
10:15 AM,71.6,50.0,46,29.86,10.0,NW,4.6,-,N/A,,Clear,310,2013-09-17 17:15:00
10:35 AM,71.6,50.0,46,29.86,10.0,WNW,10.4,17.3,N/A,,Clear,290,2013-09-17 17:35:00
10:55 AM,71.6,50.0,46,29.86,10.0,WNW,9.2,16.1,N/A,,Clear,300,2013-09-17 17:55:00
11:15 AM,71.6,51.8,50,29.86,10.0,West,9.2,17.3,N/A,,Clear,270,2013-09-17 18:15:00
11:35 AM,73.4,51.8,47,29.86,10.0,West,11.5,-,N/A,,Clear,280,2013-09-17 18:35:00
11:55 AM,73.4,51.8,47,29.86,10.0,WNW,12.7,21.9,N/A,,Clear,290,2013-09-17 18:55:00
12:15 PM,73.4,51.8,47,29.85,10.0,West,11.5,19.6,N/A,,Clear,280,2013-09-17 19:15:00
12:35 PM,73.4,50.0,44,29.85,10.0,WNW,16.1,23.0,N/A,,Clear,290,2013-09-17 19:35:00
12:55 PM,73.4,51.8,47,29.85,10.0,West,13.8,23.0,N/A,,Clear,280,2013-09-17 19:55:00
1:15 PM,73.4,50.0,44,29.85,10.0,WSW,18.4,27.6,N/A,,Clear,250,2013-09-17 20:15:00
1:35 PM,73.4,50.0,44,29.84,10.0,West,18.4,25.3,N/A,,Clear,260,2013-09-17 20:35:00
1:55 PM,73.4,50.0,44,29.84,10.0,West,21.9,28.8,N/A,,Clear,260,2013-09-17 20:55:00
2:15 PM,73.4,51.8,47,29.83,10.0,West,20.7,25.3,N/A,,Clear,270,2013-09-17 21:15:00
2:35 PM,73.4,51.8,47,29.83,10.0,WSW,20.7,28.8,N/A,,Clear,250,2013-09-17 21:35:00
2:55 PM,73.4,51.8,47,29.82,10.0,WSW,21.9,26.5,N/A,,Clear,250,2013-09-17 21:55:00
3:15 PM,75.2,51.8,44,29.82,10.0,West,17.3,21.9,N/A,,Clear,260,2013-09-17 22:15:00
3:35 PM,75.2,51.8,44,29.82,10.0,West,18.4,26.5,N/A,,Clear,270,2013-09-17 22:35:00
3:55 PM,75.2,51.8,44,29.82,10.0,West,20.7,29.9,N/A,,Clear,260,2013-09-17 22:55:00
4:15 PM,75.2,51.8,44,29.82,10.0,West,16.1,26.5,N/A,,Clear,270,2013-09-17 23:15:00
4:35 PM,75.2,51.8,44,29.82,10.0,West,20.7,28.8,N/A,,Clear,270,2013-09-17 23:35:00
4:55 PM,75.2,51.8,44,29.81,10.0,West,20.7,27.6,N/A,,Clear,270,2013-09-17 23:55:00
5:15 PM,73.4,51.8,47,29.82,10.0,West,20.7,26.5,N/A,,Clear,270,2013-09-18 00:15:00
5:35 PM,73.4,51.8,47,29.81,10.0,West,18.4,26.5,N/A,,Clear,280,2013-09-18 00:35:00
5:55 PM,73.4,50.0,44,29.81,10.0,West,17.3,24.2,N/A,,Clear,280,2013-09-18 00:55:00
6:15 PM,73.4,50.0,44,29.82,10.0,West,19.6,25.3,N/A,,Clear,280,2013-09-18 01:15:00
6:35 PM,71.6,50.0,46,29.81,10.0,West,19.6,26.5,N/A,,Clear,280,2013-09-18 01:35:00
6:55 PM,71.6,50.0,46,29.81,10.0,WNW,17.3,23.0,N/A,,Clear,290,2013-09-18 01:55:00
7:15 PM,71.6,50.0,46,29.82,10.0,WNW,11.5,18.4,N/A,,Clear,300,2013-09-18 02:15:00
7:35 PM,68.0,50.0,52,29.83,10.0,NNW,4.6,-,N/A,,Clear,340,2013-09-18 02:35:00
7:55 PM,68.0,50.0,52,29.84,10.0,ESE,5.8,-,N/A,,Clear,120,2013-09-18 02:55:00
8:15 PM,68.0,50.0,52,29.85,10.0,WSW,5.8,-,N/A,,Clear,240,2013-09-18 03:15:00
8:35 PM,66.2,50.0,56,29.86,10.0,Calm,Calm,-,N/A,,Clear,0,2013-09-18 03:35:00
8:55 PM,66.2,48.2,52,29.86,10.0,NW,5.8,-,N/A,,Clear,320,2013-09-18 03:55:00
9:15 PM,66.2,48.2,52,29.87,10.0,NW,6.9,-,N/A,,Clear,310,2013-09-18 04:15:00
9:35 PM,66.2,48.2,52,29.88,10.0,SSE,3.5,-,N/A,,Clear,160,2013-09-18 04:35:00
9:55 PM,66.2,50.0,56,29.89,10.0,WSW,6.9,-,N/A,,Clear,240,2013-09-18 04:55:00
10:15 PM,66.2,48.2,52,29.89,10.0,Calm,Calm,-,N/A,,Clear,0,2013-09-18 05:15:00
10:35 PM,64.4,48.2,56,29.88,10.0,WSW,4.6,-,N/A,,Clear,250,2013-09-18 05:35:00
10:55 PM,64.4,48.2,56,29.88,10.0,NNW,9.2,-,N/A,,Clear,330,2013-09-18 05:55:00
11:15 PM,64.4,48.2,56,29.88,10.0,WNW,6.9,-,N/A,,Clear,300,2013-09-18 06:15:00
11:35 PM,62.6,48.2,59,29.89,10.0,West,6.9,-,N/A,,Clear,260,2013-09-18 06:35:00
11:55 PM,64.4,48.2,56,29.89,10.0,NW,9.2,-,N/A,,Clear,320,2013-09-18 06:55:00